EW1701 Weather Reports


time (UTC)temp
F
wind
direction
speed
knots
gust
knots
rain 1hr
in
rain 24hr
in
rain mn
in
humidity
%
barometer
mb
20260506073048 44 13 1.7 7.8 0.00 0.00 0.00 63 1017.1
20260506071553 43 0 0.0 1.7 0.00 0.00 0.00 64 1017.0
20260506061545 39 0 0.0 0.9 0.00 0.00 0.00 69 1016.7
20260506044700 34 0 0.0 0.0 0.00 0.00 0.00 73 1016.7
20260506043046 34 0 0.0 0.0 0.00 0.00 0.00 73 1016.7
20260506041601 34 0 0.0 0.9 0.00 0.00 0.00 72 1016.8
20260506040052 35 0 0.0 0.0 0.00 0.00 0.00 72 1016.8
20260506034621 34 0 0.0 0.0 0.00 0.00 0.00 72 1016.9
20260506033046 34 0 0.0 0.0 0.00 0.00 0.00 72 1016.8
20260506031551 35 0 0.0 0.0 0.00 0.00 0.00 72 1017.0
20260506030044 35 0 0.0 0.9 0.00 0.00 0.00 71 1017.0
20260506024551 36 0 0.0 0.0 0.00 0.00 0.00 72 1016.9
20260506023107 36 0 0.0 0.0 0.00 0.00 0.00 72 1017.0
20260506021548 36 0 0.0 0.0 0.00 0.00 0.00 72 1016.9
20260506020047 36 0 0.0 0.0 0.00 0.00 0.00 72 1017.0
20260506014553 36 0 0.0 0.0 0.00 0.00 0.00 72 1017.1
20260506013053 36 0 0.0 0.0 0.00 0.00 0.00 72 1017.1
20260506011549 36 0 0.0 0.0 0.00 0.00 0.00 72 1017.2
20260506010100 37 0 0.0 0.0 0.00 0.00 0.00 72 1017.1
20260506004603 37 0 0.0 0.0 0.00 0.00 0.00 72 1017.1
20260506003102 37 0 0.0 0.0 0.00 0.00 0.00 72 1017.2
20260506001547 37 0 0.0 0.0 0.00 0.00 0.00 72 1017.3
20260506000047 38 0 0.0 0.0 0.00 0.00 0.00 72 1017.2
20260505234601 38 0 0.0 0.0 0.00 0.00 0.00 72 1017.3
20260505233051 39 0 0.0 0.0 0.00 0.00 0.00 72 1017.5
20260505231550 39 0 0.0 0.0 0.00 0.00 0.00 72 1017.4
20260505230054 39 0 0.0 0.0 0.00 0.00 0.00 72 1017.6
20260505224552 39 0 0.0 0.0 0.00 0.00 0.00 72 1017.5
20260505223053 39 0 0.0 0.0 0.00 0.00 0.00 71 1017.5
20260505221551 39 0 0.0 0.0 0.00 0.00 0.00 71 1017.6
20260505214601 40 0 0.0 0.0 0.00 0.00 0.00 71 1017.5
20260505213046 41 0 0.0 0.0 0.00 0.00 0.00 70 1017.6
20260505211602 42 0 0.0 1.7 0.00 0.00 0.00 70 1017.8
20260505210100 42 0 0.0 2.6 0.00 0.00 0.00 70 1017.8
20260505204550 43 0 0.0 2.6 0.00 0.00 0.00 69 1017.8
20260505203055 43 0 0.0 3.5 0.00 0.00 0.00 69 1017.7
20260505201552 44 0 0.0 7.8 0.00 0.00 0.00 69 1017.7
20260505200052 44 0 0.9 6.1 0.00 0.00 0.00 69 1017.6
20260505194554 44 0 0.0 7.0 0.00 0.00 0.00 68 1017.5
20260505193048 45 33 0.0 8.7 0.00 0.00 0.00 67 1017.4
20260505191557 45 44 1.7 7.8 0.00 0.00 0.00 66 1017.4
20260505190051 45 46 2.6 9.6 0.00 0.00 0.00 66 1017.3
20260505184548 45 19 2.6 8.7 0.00 0.00 0.00 66 1017.2
20260505183052 45 0 2.6 10.4 0.00 0.00 0.00 65 1017.2
20260505181542 45 25 1.7 8.7 0.00 0.00 0.00 65 1017.1
20260505180052 45 34 0.9 8.7 0.00 0.00 0.00 65 1017.2
20260505174608 46 50 3.5 12.2 0.00 0.00 0.00 64 1017.1
20260505173046 47 42 4.3 9.6 0.00 0.00 0.00 64 1017.1
20260505171545 47 0 0.9 10.4 0.00 0.00 0.00 63 1017.0
20260505170107 47 5 0.9 9.6 0.00 0.00 0.00 63 1017.0
20260505164546 48 35 1.7 10.4 0.00 0.00 0.00 63 1017.0
20260505163050 48 345 0.9 15.6 0.00 0.00 0.00 63 1016.9
20260505161554 48 0 4.3 10.4 0.00 0.00 0.00 63 1016.7
20260505153054 48 13 6.1 12.2 0.00 0.00 0.00 64 1016.6
20260505151552 48 36 1.7 13.0 0.00 0.00 0.00 65 1016.5
20260505124544 49 46 3.5 8.7 0.00 0.00 0.00 65 1016.0
20260505123108 49 0 0.9 9.6 0.00 0.00 0.00 65 1015.9
20260505121541 49 0 0.0 7.8 0.00 0.00 0.00 64 1015.7
20260505120048 50 30 2.6 7.8 0.00 0.00 0.00 65 1015.7
20260505114609 50 0 1.7 7.8 0.00 0.00 0.00 67 1015.6
20260505113044 49 0 1.7 9.6 0.00 0.00 0.00 70 1015.6
20260505111605 48 346 0.9 10.4 0.00 0.00 0.00 72 1015.5
20260505101549 51 0 0.0 4.3 0.00 0.00 0.00 65 1015.2
20260505100045 53 0 0.0 2.6 0.00 0.00 0.00 61 1015.2
20260505094548 53 33 0.0 1.7 0.00 0.00 0.00 62 1015.0
20260505093053 53 0 0.0 2.6 0.00 0.00 0.00 61 1015.0
20260505091549 52 0 0.0 4.3 0.00 0.00 0.00 62 1015.1
20260505090054 52 0 0.0 2.6 0.00 0.00 0.00 64 1015.0
20260505084545 51 0 0.0 1.7 0.00 0.00 0.00 63 1015.0
20260505083059 51 0 0.0 1.7 0.00 0.00 0.00 64 1015.0
20260505081548 50 0 0.0 2.6 0.00 0.00 0.00 63 1015.0
20260505080051 50 0 0.0 0.9 0.00 0.00 0.00 64 1014.9
20260505074549 49 0 0.0 0.0 0.00 0.00 0.00 64 1014.9